DW6536 Weather Reports


Display with metric or nautical units.
time (UTC)temp
F
wind
direction
speed
MPH
gust
MPH
rain 1hr
in
rain 24hr
in
rain mn
in
humidity
%
barometer
mb
20260503021511 61 132 0.0 0.0 0.00 0.00 0.00 68 1019.1
20260503020011 62 132 0.0 0.0 0.00 0.00 0.00 67 1019.0
20260503014510 63 132 0.0 0.0 0.00 0.00 0.00 65 1018.9
20260503013010 65 132 0.0 0.0 0.00 0.00 0.00 62 1019.0
20260503011515 67 132 0.0 0.0 0.00 0.00 0.00 60 1018.7
20260503010009 69 132 0.0 0.0 0.00 0.00 0.00 59 1018.7
20260503004509 70 132 0.0 0.0 0.00 0.00 0.00 53 1018.6
20260503003008 71 91 0.0 0.0 0.00 0.00 0.00 50 1018.6
20260503001508 72 149 0.0 0.0 0.00 0.00 0.00 51 1018.6
20260503000007 73 149 0.0 0.0 0.00 0.00 0.00 48 1018.5
20260502234517 73 53 1.0 0.0 0.00 0.00 0.00 50 1018.5
20260502233006 73 53 1.0 0.0 0.00 0.00 0.00 44 1018.4
20260502231508 74 68 1.0 0.0 0.00 0.00 0.00 45 1018.3
20260502230006 74 79 1.0 0.0 0.00 0.00 0.00 47 1018.4
20260502224505 74 3 2.0 0.0 0.00 0.00 0.00 46 1018.4
20260502223005 74 48 1.0 0.0 0.00 0.00 0.00 46 1018.5
20260502221504 74 128 2.0 0.0 0.00 0.00 0.00 47 1018.5
20260502220003 74 71 1.0 0.0 0.00 0.00 0.00 48 1018.7
20260502214506 74 55 2.0 0.0 0.00 0.00 0.00 45 1018.7
20260502213002 74 67 2.0 0.0 0.00 0.00 0.00 43 1018.9
20260502211505 74 65 1.0 0.0 0.00 0.00 0.00 48 1019.1
20260502210004 74 57 2.0 0.0 0.00 0.00 0.00 44 1019.4
20260502204618 74 89 2.0 0.0 0.00 0.00 0.00 45 1019.7
20260502203059 74 24 2.0 0.0 0.00 0.00 0.00 46 1019.8
20260502201557 73 12 2.0 0.0 0.00 0.00 0.00 43 1020.0
20260502200056 73 52 2.0 0.0 0.00 0.00 0.00 46 1020.0
20260502194552 72 33 2.0 0.0 0.00 0.00 0.00 45 1019.9
20260502193052 72 43 2.0 0.0 0.00 0.00 0.00 46 1020.1
20260502191549 71 54 2.0 0.0 0.00 0.00 0.00 51 1020.1
20260502190046 71 50 2.0 0.0 0.00 0.00 0.00 55 1020.1
20260502184554 70 79 2.0 0.0 0.00 0.00 0.00 54 1020.4
20260502183044 70 72 2.0 0.0 0.00 0.00 0.00 51 1020.6
20260502181545 70 297 2.0 0.0 0.00 0.00 0.00 53 1020.8
20260502163031 66 33 2.0 0.0 0.00 0.00 0.00 63 1022.0
20260502161526 64 10 2.0 0.0 0.00 0.00 0.00 62 1022.1
20260502151516 62 30 1.0 0.0 0.00 0.00 0.00 71 1022.0
20260502123048 47 301 0.0 0.0 0.00 0.00 0.00 93 1020.4
20260502121550 47 303 0.0 0.0 0.00 0.00 0.00 93 1020.1
20260502114538 47 320 0.0 0.0 0.00 0.00 0.00 92 1019.6
20260502113038 47 338 0.0 0.0 0.00 0.00 0.00 92 1019.4
20260502111539 47 338 0.0 0.0 0.00 0.00 0.00 91 1019.3
20260502110036 47 338 0.0 0.0 0.00 0.00 0.00 91 1019.0
20260502104530 48 338 0.0 0.0 0.00 0.00 0.00 91 1018.8
20260502103028 48 338 0.0 0.0 0.00 0.00 0.00 91 1018.5
20260502101526 49 357 0.0 0.0 0.00 0.00 0.00 91 1018.1
20260502091519 49 347 1.0 0.0 0.00 0.00 0.00 92 1017.6
20260502071511 50 352 1.0 0.0 0.00 0.00 0.00 92 1017.4
20260502070019 50 323 0.0 0.0 0.00 0.00 0.00 92 1017.4
20260502064507 50 4 0.0 0.0 0.00 0.00 0.00 91 1017.3
20260502063006 50 322 0.0 0.0 0.00 0.00 0.00 91 1017.3
20260502061504 51 322 0.0 0.0 0.00 0.00 0.00 91 1017.3
20260502060002 51 16 1.0 0.0 0.00 0.00 0.00 91 1017.5
20260502054501 51 20 1.0 0.0 0.00 0.00 0.00 91 1017.4
20260502053100 51 354 0.0 0.0 0.00 0.00 0.00 91 1017.2
20260502051558 52 34 0.0 0.0 0.00 0.00 0.00 91 1017.2
20260502050101 52 353 0.0 0.0 0.00 0.00 0.00 91 1017.1
20260502044555 52 355 0.0 0.0 0.00 0.00 0.89 90 1017.0
20260502043100 53 358 0.0 0.0 0.00 0.00 0.89 90 1017.0
20260502041553 53 360 0.0 0.0 0.00 0.00 0.89 90 1017.0
20260502040055 53 35 0.0 0.0 0.00 0.00 0.89 89 1016.8
20260502034554 53 10 1.0 0.0 0.00 0.00 0.89 89 1017.1
20260502033050 53 18 1.0 0.0 0.00 0.00 0.89 89 1017.0
20260502031549 53 42 1.0 0.0 0.00 0.00 0.89 89 1016.9
20260502030052 53 7 1.0 0.0 0.00 0.00 0.89 89 1016.7
20260502024550 53 27 1.0 0.0 0.00 0.00 0.89 89 1016.5
20260502023049 53 29 2.0 0.0 0.00 0.00 0.89 88 1016.3